TimePST,TemperatureF,Dew PointF,Humidity,Sea Level PressureIn,VisibilityMPH,Wind Direction,Wind SpeedMPH,Gust SpeedMPH,PrecipitationIn,Events,Conditions,WindDirDegrees,DateUTC
12:29 AM,35.6,33.8,93,30.04,0.2,North,3.5,-,N/A,Fog,Fog,10,2012-12-11 08:29:00
12:56 AM,35.1,34.0,96,30.06,0.2,Calm,Calm,-,N/A,Fog,Fog,0,2012-12-11 08:56:00
1:24 AM,35.6,33.8,93,30.01,0.5,Calm,Calm,-,N/A,Fog,Fog,0,2012-12-11 09:24:00
1:56 AM,34.0,33.1,96,30.03,0.5,NE,3.5,-,N/A,Fog,Fog,40,2012-12-11 09:56:00
2:20 AM,33.8,33.8,100,29.98,0.2,Calm,Calm,-,N/A,Fog,Fog,0,2012-12-11 10:20:00
2:29 AM,33.8,33.8,100,29.97,0.2,North,3.5,-,N/A,Fog,Fog,10,2012-12-11 10:29:00
2:56 AM,34.0,33.1,96,30.00,0.2,NNW,4.6,-,N/A,Fog,Fog,340,2012-12-11 10:56:00
3:56 AM,35.1,34.0,96,29.97,0.2,NW,3.5,-,N/A,Fog,Fog,310,2012-12-11 11:56:00
4:56 AM,34.0,34.0,100,29.91,0.2,Calm,Calm,-,N/A,Fog,Fog,0,2012-12-11 12:56:00
5:56 AM,34.0,33.1,96,29.88,0.2,SE,3.5,-,N/A,Fog,Fog,140,2012-12-11 13:56:00
6:56 AM,34.0,33.1,96,29.86,0.2,Calm,Calm,-,0.00,Fog,Fog,0,2012-12-11 14:56:00
7:56 AM,34.0,33.1,96,29.84,0.2,NNW,3.5,-,N/A,Fog,Fog,340,2012-12-11 15:56:00
8:56 AM,33.8,33.8,100,29.79,0.2,Calm,Calm,-,N/A,Fog,Fog,0,2012-12-11 16:56:00
9:56 AM,35.1,34.0,96,29.79,0.2,NNE,4.6,-,N/A,Fog,Fog,20,2012-12-11 17:56:00
10:03 AM,35.6,33.8,93,29.75,1.0,North,4.6,-,N/A,,Mist,360,2012-12-11 18:03:00
10:10 AM,35.6,33.8,93,29.75,1.5,Calm,Calm,-,N/A,,Mostly Cloudy,0,2012-12-11 18:10:00
10:29 AM,35.6,35.6,100,29.74,2.0,NNE,5.8,-,N/A,,Mostly Cloudy,20,2012-12-11 18:29:00
10:56 AM,36.0,35.1,97,29.76,2.0,NNW,3.5,-,N/A,,Scattered Clouds,340,2012-12-11 18:56:00
11:02 AM,35.6,35.6,100,29.72,1.2,NNW,3.5,-,N/A,,Mostly Cloudy,340,2012-12-11 19:02:00
11:09 AM,35.6,35.6,100,29.72,0.8,North,4.6,-,N/A,,Mostly Cloudy,350,2012-12-11 19:09:00
11:22 AM,37.4,35.6,93,29.70,1.5,East,3.5,-,N/A,,Overcast,90,2012-12-11 19:22:00
11:24 AM,37.4,35.6,93,29.70,3.0,East,3.5,-,N/A,,Overcast,80,2012-12-11 19:24:00
11:56 AM,37.9,36.0,93,29.72,8.0,Calm,Calm,-,N/A,,Mostly Cloudy,0,2012-12-11 19:56:00
12:56 PM,39.0,35.1,86,29.68,10.0,NE,6.9,-,N/A,,Clear,40,2012-12-11 20:56:00
1:56 PM,39.9,36.0,86,29.65,10.0,NNE,4.6,-,N/A,,Mostly Cloudy,30,2012-12-11 21:56:00
2:56 PM,41.0,35.1,79,29.63,10.0,ENE,4.6,-,N/A,,Mostly Cloudy,70,2012-12-11 22:56:00
3:56 PM,39.0,35.1,86,29.62,7.0,East,3.5,-,N/A,,Overcast,90,2012-12-11 23:56:00
4:56 PM,39.9,35.1,83,29.62,10.0,Calm,Calm,-,N/A,,Overcast,0,2012-12-12 00:56:00
5:56 PM,37.9,35.1,89,29.63,9.0,Calm,Calm,-,N/A,,Overcast,0,2012-12-12 01:56:00
6:56 PM,37.9,35.1,89,29.62,10.0,SSE,5.8,-,N/A,,Overcast,160,2012-12-12 02:56:00
7:56 PM,37.9,35.1,89,29.62,9.0,North,3.5,-,N/A,,Overcast,350,2012-12-12 03:56:00
8:56 PM,39.0,35.1,86,29.61,10.0,East,4.6,-,0.00,,Overcast,90,2012-12-12 04:56:00
9:56 PM,39.0,35.1,86,29.61,10.0,Calm,Calm,-,N/A,,Overcast,0,2012-12-12 05:56:00
10:56 PM,39.0,35.1,86,29.60,10.0,Calm,Calm,-,N/A,,Overcast,0,2012-12-12 06:56:00
11:56 PM,37.9,35.1,89,29.62,10.0,Calm,Calm,-,N/A,,Overcast,0,2012-12-12 07:56:00